Merrill, WI

10:19 PM CST on February 24, 2018 (GMT -0600)
Merrill Municipal

Weather History for KRRL - March, 2013

Change the Weather History Date:

Thursday, March 28, 2013

  Actual Average Record
Temperature  
Mean Temperature 28 °F -  
Max Temperature 42 °F 45 °F 78 °F (1910)
Min Temperature 14 °F 24 °F -9 °F (1955)
Degree Days  
Heating Degree Days 37    
Moisture  
Dew Point 17 °F    
Average Humidity 62    
Maximum Humidity 93    
Minimum Humidity 31    
Precipitation  
Precipitation 0.00 in - - ()
Sea Level Pressure  
Sea Level Pressure 30.28 in    
Wind  
Wind Speed 2 mph (West)    
Max Wind Speed 12 mph    
Max Gust Speed -    
Visibility 10 miles    
Events      
Averages and records for this station are not official NWS values.
T = Trace of Precipitation, MM = Missing Value Source: NWS Daily Summary

Daily Weather History Graph

Daily Weather History Graph

Search for Another Location

Airport or City:

Trip Planner

Search our weather history database for the weather conditions in past years. The results will help you decide how hot, cold, wet, or windy it might be!

Date:

Astronomy

Mar. 28, 2013 Rise Set
Actual Time 6:46 AM CDT 7:21 PM CDT
Civil Twilight 6:16 AM CDT 7:51 PM CDT
Nautical Twilight 5:41 AM CDT 8:26 PM CDT
Astronomical Twilight 5:05 AM CDT 9:03 PM CDT
Moon 9:21 PM CDT (3/28) 7:09 AM CDT (3/28)
Length of Visible Light 13h 34m
Length of Day
12h 35m
Full, 98% of the Moon is Illuminated
Mar 28
Full
Apr 2
Last Quarter
Apr 10
New
Apr 18
First Quarter
Apr 25
Full

Hourly Weather History & Observations

Time (CDT) Temp. Windchill Dew Point Humidity Pressure Visibility Wind Dir Wind Speed Gust Speed Precip Events Conditions
12:15 AM 23.0 °F - 17.6 °F 80% 30.28 in 10.0 mi Calm Calm - N/A   Clear
12:35 AM 23.0 °F - 17.6 °F 80% 30.29 in 10.0 mi Calm Calm - N/A   Clear
12:55 AM 21.2 °F - 17.6 °F 86% 30.29 in 10.0 mi Calm Calm - N/A   Clear
1:15 AM 21.2 °F - 15.8 °F 80% 30.30 in 10.0 mi Calm Calm - N/A   Clear
1:35 AM 21.2 °F - 17.6 °F 86% 30.30 in 10.0 mi Calm Calm - N/A   Clear
1:55 AM 19.4 °F - 15.8 °F 86% 30.30 in 10.0 mi Calm Calm - N/A   Clear
2:35 AM 19.4 °F - 14.0 °F 80% 30.30 in 10.0 mi Calm Calm - N/A   Clear
2:55 AM 19.4 °F - 14.0 °F 80% 30.30 in 10.0 mi Calm Calm - N/A   Clear
3:15 AM 19.4 °F - 14.0 °F 80% 30.30 in 10.0 mi Calm Calm - N/A   Clear
3:35 AM 17.6 °F - 14.0 °F 86% 30.30 in 10.0 mi Calm Calm - N/A   Clear
3:55 AM 17.6 °F - 14.0 °F 86% 30.30 in 10.0 mi Calm Calm - N/A   Clear
4:15 AM 15.8 °F - 12.2 °F 86% 30.30 in 10.0 mi Calm Calm - N/A   Clear
4:35 AM 17.6 °F - 14.0 °F 86% 30.30 in 10.0 mi Calm Calm - N/A   Clear
4:55 AM 15.8 °F - 14.0 °F 93% 30.30 in 10.0 mi Calm Calm - N/A   Clear
5:15 AM 14.0 °F - 12.2 °F 93% 30.30 in 10.0 mi Calm Calm - N/A   Clear
5:35 AM 14.0 °F - 12.2 °F 93% 30.30 in 10.0 mi Calm Calm - N/A   Clear
5:55 AM 14.0 °F - 12.2 °F 93% 30.30 in 10.0 mi Calm Calm - N/A   Clear
6:15 AM 14.0 °F - 12.2 °F 93% 30.31 in 10.0 mi Calm Calm - N/A   Clear
6:35 AM 14.0 °F - 10.4 °F 86% 30.31 in 10.0 mi Calm Calm - N/A   Clear
6:55 AM 14.0 °F - 10.4 °F 86% 30.31 in 10.0 mi Calm Calm - N/A   Clear
7:15 AM 14.0 °F - 10.4 °F 86% 30.32 in 10.0 mi Calm Calm - N/A   Clear
7:35 AM 14.0 °F - 12.2 °F 93% 30.32 in 10.0 mi Calm Calm - N/A   Clear
7:55 AM 17.6 °F - 12.2 °F 79% 30.32 in 10.0 mi Calm Calm - N/A   Clear
8:15 AM 19.4 °F - 14.0 °F 80% 30.32 in 10.0 mi Calm Calm - N/A   Clear
8:35 AM 21.2 °F - 14.0 °F 74% 30.32 in 10.0 mi Calm Calm - N/A   Clear
8:55 AM 24.8 °F - 14.0 °F 64% 30.32 in 10.0 mi Calm Calm - N/A   Clear
9:15 AM 28.4 °F - 15.8 °F 59% 30.32 in 10.0 mi Calm Calm - N/A   Clear
9:35 AM 28.4 °F - 15.8 °F 59% 30.32 in 10.0 mi Calm Calm - N/A   Clear
9:55 AM 32.0 °F - 17.6 °F 55% 30.31 in 10.0 mi Calm Calm - N/A   Clear
10:15 AM 33.8 °F - 17.6 °F 52% 30.31 in 10.0 mi Calm Calm - N/A   Clear
10:35 AM 35.6 °F - 17.6 °F 48% 30.31 in 10.0 mi Calm Calm - N/A   Clear
10:55 AM 37.4 °F 32.8 °F 17.6 °F 45% 30.31 in 10.0 mi West 5.8 mph - N/A   Clear
11:15 AM 37.4 °F 34.9 °F 17.6 °F 45% 30.30 in 10.0 mi NNW 3.5 mph - N/A   Clear
11:35 AM 39.2 °F 35.9 °F 15.8 °F 39% 30.30 in 10.0 mi NNW 4.6 mph - N/A   Clear
11:55 AM 39.2 °F 35.0 °F 17.6 °F 42% 30.30 in 10.0 mi WNW 5.8 mph - N/A   Clear
12:35 PM 41.0 °F 35.8 °F 15.8 °F 36% 30.29 in 10.0 mi NW 8.1 mph - N/A   Clear
12:55 PM 41.0 °F 36.4 °F 17.6 °F 39% 30.29 in 10.0 mi NW 6.9 mph - N/A   Clear
1:15 PM 41.0 °F 39.0 °F 17.6 °F 39% 30.28 in 10.0 mi NW 3.5 mph - N/A   Clear
1:35 PM 41.0 °F 37.1 °F 14.0 °F 33% 30.28 in 10.0 mi NNW 5.8 mph - N/A   Clear
1:55 PM 42.8 °F 41.1 °F 15.8 °F 34% 30.27 in 10.0 mi NW 3.5 mph - N/A   Clear
2:15 PM 42.8 °F 39.3 °F 15.8 °F 34% 30.27 in 10.0 mi NNW 5.8 mph - N/A   Clear
2:35 PM 42.8 °F 40.1 °F 17.6 °F 36% 30.26 in 10.0 mi WSW 4.6 mph - N/A   Clear
2:55 PM 42.8 °F - 14.0 °F 31% 30.26 in 10.0 mi Calm Calm - N/A   Clear
3:15 PM 42.8 °F - 14.0 °F 31% 30.25 in 10.0 mi Calm Calm - N/A   Clear
3:35 PM 42.8 °F - 17.6 °F 36% 30.25 in 10.0 mi Calm Calm - N/A   Clear
3:55 PM 42.8 °F 36.6 °F 21.2 °F 42% 30.24 in 10.0 mi SSW 11.5 mph - N/A   Clear
4:15 PM 42.8 °F 37.0 °F 21.2 °F 42% 30.24 in 10.0 mi SW 10.4 mph - N/A   Clear
4:35 PM 42.8 °F 37.0 °F 21.2 °F 42% 30.24 in 10.0 mi SW 10.4 mph - N/A   Clear
4:55 PM 42.8 °F 38.0 °F 21.2 °F 42% 30.24 in 10.0 mi SW 8.1 mph - N/A   Clear
5:15 PM 41.0 °F 38.0 °F 21.2 °F 45% 30.24 in 10.0 mi SW 4.6 mph - N/A   Clear
5:35 PM 41.0 °F 35.8 °F 19.4 °F 42% 30.24 in 10.0 mi SW 8.1 mph - N/A   Clear
5:55 PM 41.0 °F 35.2 °F 21.2 °F 45% 30.24 in 10.0 mi WSW 9.2 mph - N/A   Clear
6:15 PM 41.0 °F 36.4 °F 21.2 °F 45% 30.24 in 10.0 mi WSW 6.9 mph - N/A   Clear
6:35 PM 39.2 °F 34.2 °F 21.2 °F 49% 30.24 in 10.0 mi SW 6.9 mph - N/A   Clear
6:55 PM 37.4 °F 34.9 °F 21.2 °F 52% 30.25 in 10.0 mi SW 3.5 mph - N/A   Clear
7:15 PM 37.4 °F 34.9 °F 21.2 °F 52% 30.25 in 10.0 mi WSW 3.5 mph - N/A   Clear
7:35 PM 35.6 °F 32.8 °F 21.2 °F 56% 30.25 in 10.0 mi WSW 3.5 mph - N/A   Clear
7:55 PM 33.8 °F - 21.2 °F 60% 30.25 in 10.0 mi Calm Calm - N/A   Clear
8:15 PM 32.0 °F - 21.2 °F 64% 30.25 in 10.0 mi Calm Calm - N/A   Clear
8:35 PM 33.8 °F - 19.4 °F 56% 30.26 in 10.0 mi Calm Calm - N/A   Clear
8:55 PM 32.0 °F 28.7 °F 19.4 °F 60% 30.26 in 10.0 mi WSW 3.5 mph - N/A   Clear
9:15 PM 32.0 °F 25.6 °F 19.4 °F 60% 30.27 in 10.0 mi West 6.9 mph - N/A   Clear
9:35 PM 32.0 °F 26.4 °F 19.4 °F 60% 30.27 in 10.0 mi West 5.8 mph - N/A   Clear
9:55 PM 33.8 °F 27.7 °F 19.4 °F 56% 30.27 in 10.0 mi West 6.9 mph - N/A   Clear
10:15 PM 32.0 °F 27.5 °F 19.4 °F 60% 30.27 in 10.0 mi West 4.6 mph - N/A   Clear
10:35 PM 32.0 °F 27.5 °F 19.4 °F 60% 30.28 in 10.0 mi WNW 4.6 mph - N/A   Clear
10:55 PM 32.0 °F 28.7 °F 17.6 °F 55% 30.28 in 10.0 mi WNW 3.5 mph - N/A   Clear
11:15 PM 32.0 °F 27.5 °F 17.6 °F 55% 30.28 in 10.0 mi NW 4.6 mph - N/A   Clear
11:35 PM 32.0 °F - 17.6 °F 55% 30.28 in 10.0 mi Calm Calm - N/A   Clear
11:55 PM 28.4 °F - 17.6 °F 64% 30.28 in 10.0 mi Calm Calm - N/A   Clear